CST,Max TemperatureF,Mean TemperatureF,Min TemperatureF,Max Dew PointF,MeanDew PointF,Min DewpointF,Max Humidity, Mean Humidity, Min Humidity, Max Sea Level PressureIn, Mean Sea Level PressureIn, Min Sea Level PressureIn, Max VisibilityMiles, Mean VisibilityMiles, Min VisibilityMiles, Max Wind SpeedMPH, Mean Wind SpeedMPH, Max Gust SpeedMPH,PrecipitationIn, CloudCover, Events, WindDirDegrees
2012-11-1,80,58,36,35,33,30,76,47,17,30.07,29.96,29.84,10,10,8,17,8,22,0.00,0,,198
2012-11-2,74,56,38,35,32,27,70,45,20,30.09,29.87,29.74,10,10,10,37,15,43,0.00,0,,354
2012-11-3,62,46,30,36,32,29,92,64,35,30.26,30.19,30.10,10,10,10,12,7,14,0.00,0,,21
2012-11-4,70,51,32,35,30,26,82,53,23,30.20,30.13,30.02,10,10,10,17,8,21,0.00,0,,227
2012-11-5,60,50,40,35,32,29,70,53,36,30.22,30.15,30.08,10,10,10,22,11,26,0.00,2,,344
2012-11-6,67,52,36,39,33,30,82,55,28,30.20,30.14,30.06,10,10,10,25,9,30,0.00,0,,331
2012-11-7,73,54,34,37,33,29,82,53,23,30.16,30.02,29.85,10,10,10,18,10,25,0.00,0,,164
2012-11-8,67,50,32,38,35,31,82,57,32,29.86,29.82,29.78,10,10,10,16,7,23,0.00,0,,74
2012-11-9,82,58,34,38,33,27,89,52,14,29.77,29.67,29.55,10,10,10,28,12,38,0.00,0,,171
2012-11-10,79,60,41,51,35,8,70,43,15,29.75,29.54,29.39,10,9,2,46,24,59,0.00,3,,222
2012-11-11,41,32,22,32,17,10,74,53,32,30.34,30.03,29.78,10,10,10,29,14,35,0.00,4,,351
2012-11-12,51,33,15,18,9,3,84,49,14,30.48,30.41,30.34,10,10,10,13,6,16,0.00,0,,251
2012-11-13,57,40,22,16,11,7,57,38,18,30.38,30.27,30.15,10,10,10,28,12,36,0.00,0,,198
2012-11-14,61,43,24,21,15,10,68,42,15,30.35,30.24,30.10,10,10,10,16,9,18,0.00,0,,198
2012-11-15,62,46,29,27,22,19,63,43,22,30.41,30.26,30.09,10,10,10,24,11,29,0.00,0,,39
2012-11-16,59,40,21,37,29,19,81,61,40,30.43,30.32,30.19,10,10,8,23,10,30,0.00,0,,168
2012-11-17,69,54,38,41,36,32,76,54,32,30.18,30.10,30.03,10,10,9,25,15,32,0.00,0,Snow,180
2012-11-18,65,52,39,40,35,30,79,55,31,30.04,29.98,29.92,10,10,10,23,11,30,0.00,0,,180
2012-11-19,72,52,31,32,29,24,76,48,19,30.21,30.12,30.01,10,10,10,21,9,26,0.00,0,,24
2012-11-20,70,50,29,36,30,25,75,49,23,30.27,30.19,30.12,10,10,10,17,8,22,0.00,0,,208
2012-11-21,75,57,39,43,33,25,70,44,17,30.12,29.97,29.78,10,10,10,35,16,43,0.00,0,,190
2012-11-22,69,51,32,42,28,20,66,42,18,30.41,30.01,29.75,10,10,10,38,18,45,0.00,0,,344
2012-11-23,50,38,26,16,14,12,59,41,23,30.61,30.50,30.32,10,10,10,16,9,20,0.00,0,,341
2012-11-24,64,44,23,25,19,14,68,44,20,30.32,30.06,29.87,10,10,10,18,9,21,0.00,0,,202
2012-11-25,58,44,29,30,25,18,75,56,36,29.98,29.92,29.86,10,10,9,20,12,23,0.00,0,Snow,53
2012-11-26,41,31,21,26,21,16,92,66,40,30.51,30.29,29.98,10,9,6,25,13,29,0.00,2,Snow,35
2012-11-27,53,35,17,25,21,15,92,64,35,30.47,30.30,30.17,10,9,6,23,11,28,0.00,0,,191
2012-11-28,56,37,17,26,21,14,84,57,30,30.34,30.22,30.06,10,10,8,13,5,20,0.00,0,,140
2012-11-29,66,41,16,20,17,13,88,52,15,30.07,30.02,29.94,10,10,8,12,5,14,0.00,0,,296
2012-11-30,68,46,23,40,24,10,86,53,20,30.10,29.98,29.84,10,10,7,16,8,21,0.00,0,,138